TimeMDT,TemperatureF,Dew PointF,Humidity,Sea Level PressureIn,VisibilityMPH,Wind Direction,Wind SpeedMPH,Gust SpeedMPH,PrecipitationIn,Events,Conditions,WindDirDegrees,DateUTC
12:53 AM,46.0,8.1,21,29.85,10.0,West,8.1,-,N/A,,Clear,270,2012-11-02 06:53:00
1:53 AM,36.0,9.0,33,29.87,10.0,NE,6.9,-,N/A,,Clear,40,2012-11-02 07:53:00
2:53 AM,41.0,8.1,26,29.85,10.0,NE,5.8,-,N/A,,Clear,50,2012-11-02 08:53:00
3:53 AM,36.0,8.1,31,29.85,10.0,NE,5.8,-,N/A,,Clear,40,2012-11-02 09:53:00
4:53 AM,37.9,7.0,28,29.85,10.0,NE,5.8,-,N/A,,Clear,50,2012-11-02 10:53:00
5:53 AM,34.0,7.0,32,29.91,10.0,NNE,9.2,-,N/A,,Clear,30,2012-11-02 11:53:00
6:53 AM,30.9,7.0,37,29.94,10.0,NE,8.1,-,N/A,,Clear,40,2012-11-02 12:53:00
7:53 AM,33.1,7.0,34,29.96,10.0,NE,8.1,-,N/A,,Clear,40,2012-11-02 13:53:00
8:53 AM,39.0,8.1,28,29.97,10.0,ENE,10.4,-,N/A,,Clear,60,2012-11-02 14:53:00
9:53 AM,52.0,10.0,19,29.94,10.0,ENE,8.1,-,N/A,,Clear,60,2012-11-02 15:53:00
10:53 AM,61.0,9.0,13,29.92,10.0,ENE,5.8,-,N/A,,Clear,70,2012-11-02 16:53:00
11:53 AM,66.0,7.0,10,29.89,10.0,South,8.1,-,N/A,,Clear,190,2012-11-02 17:53:00
12:53 PM,69.1,5.0,8,29.86,10.0,South,11.5,17.3,N/A,,Clear,190,2012-11-02 18:53:00
1:53 PM,70.0,6.1,8,29.88,10.0,South,11.5,19.6,N/A,,Clear,180,2012-11-02 19:53:00
2:53 PM,70.0,3.9,7,29.84,10.0,South,16.1,20.7,N/A,,Clear,170,2012-11-02 20:53:00
3:53 PM,69.1,3.0,7,29.86,10.0,South,11.5,-,N/A,,Clear,170,2012-11-02 21:53:00
4:53 PM,68.0,3.0,8,29.88,10.0,SSE,8.1,-,N/A,,Clear,160,2012-11-02 22:53:00
5:53 PM,60.1,12.0,15,29.95,10.0,NNE,13.8,-,N/A,,Clear,30,2012-11-02 23:53:00
6:53 PM,54.0,16.0,22,30.03,10.0,NNE,8.1,-,N/A,,Clear,20,2012-11-03 00:53:00
7:53 PM,50.0,18.0,28,30.06,10.0,North,8.1,-,N/A,,Clear,10,2012-11-03 01:53:00
8:53 PM,48.9,18.0,29,30.07,10.0,NE,5.8,-,N/A,,Clear,40,2012-11-03 02:53:00
9:53 PM,46.0,19.0,34,30.04,10.0,North,6.9,-,N/A,,Clear,350,2012-11-03 03:53:00
10:53 PM,48.0,19.9,33,30.02,10.0,ENE,4.6,-,N/A,,Clear,60,2012-11-03 04:53:00
11:53 PM,42.1,19.0,40,30.04,10.0,NE,8.1,-,N/A,,Clear,40,2012-11-03 05:53:00